Location: Boiro
(42.6475°N, 8.8834°W)
Time: 08:48:32
(UTC+01:00)

SR - Pass Details

Date: 02 December 2021
Orbit: 583 x 872 km, 66.7° (Epoch: 16 January)

Event Time Altitude Azimuth Distance (km) Brightness Sun altitude
Rises 02:13:04 0° 232° (SW) 2,993 - -67.0°
Reaches altitude 10° 02:15:37 10° 242° (WSW) 2,039 - -66.8°
Maximum altitude 02:19:46 34° 308° (NW) 1,022 - -66.4°
Drops below altitude 10° 02:23:45 10° 14° (NNE) 1,941 - -65.9°
Sets 02:26:07 0° 24° (NNE) 2,828 - -65.7°
